"Pseudo-MPEC" for C1HMQD2

Created 2019 Dec 5 15:07:12 UT using Find_Orb

Click here for an explanation of pseudo-MPECs

 
 Astrometry: 
     C1HMQD2  C2019 12 02.42822 08 47 08.18 +33 53 49.8 FixDup   21.6 GVNEOCPG96
     C1HMQD2  C2019 12 02.42822 08 47 08.18 +33 53 49.8 Duplicat!21.6 GVNEOCPG96
     C1HMQD2  C2019 12 02.43341 08 47 07.57 +33 53 37.0    ~C2Cq 21.4 GVNEOCPG96
     C1HMQD2  C2019 12 02.43859 08 47 07.04 +33 53 23.6    ~C2Cq 21.5 GVNEOCPG96
     C1HMQD2  C2019 12 02.44377 08 47 06.48 +33 53 10.3    ~C2Cq 21.3 GVNEOCPG96
     C1HMQD2  C2019 12 02.46422 08 47 04.24 +33 52 19.2    ~C2Ib 20.7 GVNEOCPI52
     C1HMQD2  C2019 12 02.46755 08 47 03.85 +33 52 09.8    ~C2Ib 21.1 GVNEOCPI52
     C1HMQD2  C2019 12 02.47089 08 47 03.47 +33 52 00.7    ~C2Ib 21.6 GVNEOCPI52
     C1HMQD2  C2019 12 02.47422 08 47 03.01 +33 51 52.3    ~C2Ib 20.7 GVNEOCPI52
     C1HMQD2  C2019 12 03.37782 08 45 33.44 +33 12 41.2    ~C39b 21.1 GVNEOCPI52
     C1HMQD2  C2019 12 03.38282 08 45 32.77 +33 12 27.7    ~C39b 21.7 GVNEOCPI52
     C1HMQD2  C2019 12 03.38532 08 45 32.60 +33 12 21.1    ~C39b 20.9 GVNEOCPI52
     C1HMQD2  C2019 12 03.41803 08 45 28.75 +33 10 57.3    ~C3Ab 21.5 GVNEOCPG96
     C1HMQD2  C2019 12 03.41947 08 45 28.59 +33 10 52.8    ~C3Ab 21.1 GVNEOCPG96
     C1HMQD2  C2019 12 03.42092 08 45 28.44 +33 10 49.5    ~C3Ab 21.3 GVNEOCPG96
     C1HMQD2  C2019 12 03.42237 08 45 28.26 +33 10 45.7    ~C3Ab 21.7 GVNEOCPG96
     C1HMQD2  C2019 12 03,D`6EVGbmn*\ZG):1$OY5l1l!?X)4xiX^Z$:'@-OJi/rLIh7NqK=F52
     C1HMQD2  C2019 12 03d\/eVgHjek##K'R!K[Kojwu:f3B78_!tI@*6BOVhR393QF4W'9L7F52
     C1HMQD2  C2019 12 03!@Whbn!JUJDAstrometry9;gBKUN^H;6HOG*CMVZ(vkK89+9c`.TF52
     C1HMQD2  C2019 12 04.15666 08 44 09.69 +32 38 17.7    ~C4Ab 21.5 VVNEOCP033
     C1HMQD2  C2019 12 04.16023 08 44 09.26 +32 38 08.0    ~C4Ab 21.8 VVNEOCP033
     C1HMQD2  C2019 12 04.16381 08 44 08.83 +32 37 58.7    ~C4Ab 22.0 VVNEOCP033
     C1HMQD2  C2019 12 05.08026 08 42 28.22 +31 57 03.4    ~C52b 21.5 VVNEOCP033
     C1HMQD2  C2019 12 05.08383 08 42 27.78 +31 56 54.0    ~C52b 21.0 VVNEOCP033
     C1HMQD2  C2019 12 05.08740 08 42 27.35 +31 56 44.6    ~C52b 21.4 VVNEOCP033
     C1HMQD2  C2019 12 05.09097 08 42 26.91 +31 56 34.7    ~C52b 22.0 VVNEOCP033
     C1HMQD2 KC2019 12 05YOv*^KB`@X/pYmm,IMiyr:71E*O`H]n[fj?Jobd6tM`T@S:iZ)BRL01
     C1HMQD2 KC2019 12 05w3=wl7@)+oOAsy)^i$1)2,\LOp0r-+?^#fuDredacted;oZF?dA8L01
     C1HMQD2 KC2019 12 05c%PR][oHqAwAQIC9UQX('VRaqKxch#:t`clickVU/XP/G\YDOh;CL01
     C1HMQD2 KC2019 12 05-WOI3FN10qh$kNhere4!7l'hU)$4'-BgW@O4oxGYwG*iPrjgdK/sH21
     C1HMQD2 KC2019 12 05.g.6tdXbARkUHiWI6x!7\jAT4cr9forrkH:y84JP_#Ao%dLChAi-H21
     C1HMQD2 KC2019 12 05#3O1G8):dtb$NTml%w+explanation\?a]^KvYn*6'YGNKPC5J_:H21

Station data:
(033) Karl Schwarzschild Observatory, Tautenburg  (N50.980140 E11.711240)
   Germany. 1.3-m Schmidt.
(F52) Pan-STARRS 2, Haleakala  (N20.707384 W156.255910)  US/Hawaii. 1.8-m
   Ritchey-Chrétien + CCD.
(G96) Mt. Lemmon Survey  (N32.442754 W110.788720)  US/Arizona.  Observers T.
   A. Pruyne, B. M. Africano, E. J. Christensen, G. A. Farneth, D. C. Fuls,
   A. R. Gibbs, A. D. Grauer, H. Gröller, J. A. Johnson, R. A. Kowalski, S.
   M. Larson, G. J. Leonard, D. Rankin, R. L. Seaman, F. C. Shelly. 1.5-m
   reflector + 10K CCD.
(H21) Astronomical Research Observatory, Westfield  (N39.483057 W87.968270)
   US/Illinois. 0.76-m f/3.0 astrograph + CCD.
(I52) Steward Observatory, Mt. Lemmon Station  (N32.442547 W110.788920)
   US/Arizona.  Observers T. A. Pruyne, B. M. Africano, E. J. Christensen, G.
   A. Farneth, D. C. Fuls, A. R. Gibbs, A. D. Grauer, H. Gröller, J. A.
   Johnson, R. A. Kowalski, S. M. Larson, G. J. Leonard, D. Rankin, R. L.
   Seaman, F. C. Shelly. 1.0-m reflector + CCD.
(L01) Višnjan Observatory, Tičan  (N45.290900 E13.749300)  Croatia.
   Observers K. Korlević, E. Pettarin. Measurer E. Pettarin. 1.0-m f/2.9
   reflector + CCD.

Orbital elements:  C1HMQD2
   Perihelion 2019 Sep 13.658662 +/- 0.258 TT = 15:48:28 (JD 2458740.158662)
Epoch 2019 Dec  5.0 TT = JDT 2458822.5   Earth MOID: 0.1793   AutoNEOCP
M  58.81529249 +/- 0.36             (J2000 ecliptic)
n   0.71428633 +/- 0.00296          Peri.   94.11628 +/- 0.27
a   1.23942757 +/- 0.00342          Node   273.08116 +/- 0.050
e   0.1501810 +/- 0.00126           Incl.   16.20431 +/- 0.17
P   1.38/503.99d           H 22.4   G  0.15   U  8.8  
q 1.05328904 +/- 0.00144    Q 1.42556610 +/- 0.00544
31 of 32 observations 2019 Dec. 2-5; mean residual 0".32
Residuals in arcseconds: 
191202 G96  .08-  .49-    191203 I52  .59+  .22-    191205 033  .12-  .01-    
191202 G96( .08-  .49-)   191203 G96  .24-  .41+    191205 033  .12-  .17+    
191202 G96  .52-  .06-    191203 G96  .15-  .36-    191205 033  .01+  .35+    
191202 G96  .02+  .23-    191203 G96  .09+  .10+    191205 033  .01+  .03+    
191202 G96  .21+  .29-    191203 G96  .05-  .06+    191205 L01  .25-  .13-    
191202 I52  .63+  1.1+    191203 F52  .08+  .27-    191205 L01  .21+  .53-    
191202 I52  .40+  .22+    191203 F52  .09+  .09-    191205 L01  .36-  .23-    
191202 I52  .30+  .28-    191203 F52  .04+  .01+    191205 H21  .25+  .13+    
191202 I52  .81-  .10-    191204 033  .04+  .12+    191205 H21  .31+  .01-    
191203 I52  .33+  .61+    191204 033  .07-  .05-    191205 H21  .03+  .24+    
191203 I52  .89-  .04-    191204 033  .17-  .21+    

Ephemerides (geocentric):
Date (UTC) HH   RA              Dec         delta   r     elong  mag " sig PA
---- -- -- --  -------------   -----------  ------ ------ -----  --- ---- ---
2019 12 05 15  08 41 25.133   +31 32 36.87  .26768 1.1673 127.3 21.5 .239 134
2019 12 05 16  08 41 20.271   +31 30 43.28  .26759 1.1674 127.4 21.5 .250 134
2019 12 05 17  08 41 15.399   +31 28 49.60  .26749 1.1675 127.4 21.5 .262 134
2019 12 05 18  08 41 10.517   +31 26 55.85  .26739 1.1676 127.5 21.5 .274 133
2019 12 05 19  08 41 05.624   +31 25 02.02  .26730 1.1677 127.5 21.5 .286 133
2019 12 05 20  08 41 00.722   +31 23 08.10  .26720 1.1677 127.6 21.5 .298 133
2019 12 05 21  08 40 55.809   +31 21 14.10  .26711 1.1678 127.6 21.5 .311 133
2019 12 05 22  08 40 50.886   +31 19 20.02  .26701 1.1679 127.7 21.5 .323 133
2019 12 05 23  08 40 45.953   +31 17 25.86  .26692 1.1680 127.8 21.5 .337 133
2019 12 06 00  08 40 41.010   +31 15 31.61  .26682 1.1681 127.8 21.5 .350 133
2019 12 06 01  08 40 36.057   +31 13 37.29  .26673 1.1682 127.9 21.5 .364 132
2019 12 06 02  08 40 31.094   +31 11 42.88  .26663 1.1683 127.9 21.5 .377 132
2019 12 06 03  08 40 26.121   +31 09 48.40  .26654 1.1684 128.0 21.5 .392 132
2019 12 06 04  08 40 21.138   +31 07 53.83  .26645 1.1685 128.0 21.5 .406 132
2019 12 06 05  08 40 16.145   +31 05 59.18  .26635 1.1686 128.1 21.5 .421 132
2019 12 06 06  08 40 11.141   +31 04 04.44  .26626 1.1687 128.1 21.4 .436 132
2019 12 06 07  08 40 06.128   +31 02 09.63  .26616 1.1688 128.2 21.4 .451 132
2019 12 06 08  08 40 01.104   +31 00 14.74  .26607 1.1689 128.3 21.4 .466 132
2019 12 06 09  08 39 56.071   +30 58 19.76  .26598 1.1690 128.3 21.4 .482 132
2019 12 06 10  08 39 51.027   +30 56 24.70  .26588 1.1691 128.4 21.4 .498 131
2019 12 06 11  08 39 45.974   +30 54 29.56  .26579 1.1692 128.4 21.4 .514 131
2019 12 06 12  08 39 40.910   +30 52 34.34  .26570 1.1693 128.5 21.4 .531 131
2019 12 06 13  08 39 35.836   +30 50 39.04  .26560 1.1694 128.5 21.4 .548 131
2019 12 06 14  08 39 30.753   +30 48 43.66  .26551 1.1695 128.6 21.4 .565 131
2019 12 06 15  08 39 25.659   +30 46 48.19  .26542 1.1696 128.6 21.4 .582 131
2019 12 06 16  08 39 20.556   +30 44 52.65  .26533 1.1696 128.7 21.4 .599 131
2019 12 06 17  08 39 15.442   +30 42 57.02  .26523 1.1697 128.8 21.4 .617 131
2019 12 06 18  08 39 10.318   +30 41 01.31  .26514 1.1698 128.8 21.4 .635 131
2019 12 06 19  08 39 05.185   +30 39 05.52  .26505 1.1699 128.9 21.4 .654 131
2019 12 06 20  08 39 00.041   +30 37 09.65  .26496 1.1700 128.9 21.4 .672 130
2019 12 06 21  08 38 54.888   +30 35 13.70  .26487 1.1701 129.0 21.4 .691 130
2019 12 06 22  08 38 49.725   +30 33 17.66  .26478 1.1702 129.0 21.4 .710 130
2019 12 06 23  08 38 44.551   +30 31 21.55  .26468 1.1703 129.1 21.4 .730 130
2019 12 07 00  08 38 39.368   +30 29 25.35  .26459 1.1704 129.1 21.4 .750 130
2019 12 07 01  08 38 34.175   +30 27 29.07  .26450 1.1705 129.2 21.4 .770 130
2019 12 07 02  08 38 28.972   +30 25 32.72  .26441 1.1706 129.3 21.4 .790 130
2019 12 07 03  08 38 23.759   +30 23 36.28  .26432 1.1707 129.3 21.4 .810 130
2019 12 07 04  08 38 18.536   +30 21 39.76  .26423 1.1708 129.4 21.4 .831 130
2019 12 07 05  08 38 13.303   +30 19 43.16  .26414 1.1709 129.4 21.4 .852 130
2019 12 07 06  08 38 08.060   +30 17 46.47  .26405 1.1710 129.5 21.4 .874 130
2019 12 07 07  08 38 02.808   +30 15 49.71  .26396 1.1711 129.5 21.4 .895 130
2019 12 07 08  08 37 57.545   +30 13 52.87  .26387 1.1712 129.6 21.4 .917 130
2019 12 07 09  08 37 52.273   +30 11 55.94  .26378 1.1713 129.7 21.4 .939 129
2019 12 07 10  08 37 46.991   +30 09 58.93  .26369 1.1714 129.7 21.4 .962 129
2019 12 07 11  08 37 41.699   +30 08 01.85  .26360 1.1715 129.8 21.4 .984 129
2019 12 07 12  08 37 36.397   +30 06 04.68  .26351 1.1715 129.8 21.4 1.01 129
2019 12 07 13  08 37 31.085   +30 04 07.43  .26342 1.1716 129.9 21.4 1.03 129
2019 12 07 14  08 37 25.764   +30 02 10.10  .26334 1.1717 129.9 21.4 1.05 129